Location: Knowlton
(51.2333°N, 1.2667°E)
Time: 06:25:03
(UTC+00:00)

ISS - Pass Details

Date: 28 September 2021
Orbit: 417 x 423 km, 51.6° (Epoch: 23 October)

Event Time Altitude Azimuth Distance (km) Brightness Sun altitude
Rises 18:57:55 0° 280° (W) 2,365 2.1 -13.1°
Reaches altitude 10° 19:00:01 10° 280° (W) 1,501 0.5 -13.4°
Maximum altitude 19:03:23 85° 193° (SSW) 426 -3.8 -13.9°
Enters shadow 19:04:57 29° 105° (ESE) 796 -3.0 -14.2°
